Location: Newark
(37.6333°N, 5.2500°W)
Time: 23:21:59
(UTC+00:00)

Hubble Space Telescope - Visible Passes

Search period start: 24 March 2019 00:00
Search period end: 03 April 2019 00:00
Orbit: 537 x 540 km, 28.5° (Epoch: 24 March)

Date Brightness Start Highest point End Pass type
(mag) Time Alt. Az. Time Alt. Az. Time Alt. Az.
24 Mar 2.9 20:16:02 10° SSW 20:17:23 14° S 20:17:23 14° S visible
25 Mar 2.6 20:05:11 10° SSW 20:07:45 18° S 20:07:45 18° S visible
26 Mar 2.4 19:54:24 10° SW 19:57:25 20° S 19:58:03 19° SSE visible
27 Mar 2.4 19:43:42 10° SW 19:46:50 21° S 19:48:18 18° SE visible
28 Mar 2.4 19:33:02 10° SW 19:36:16 22° S 19:38:30 15° SE visible
29 Mar 2.4 19:22:26 10° SW 19:25:42 23° S 19:28:40 11° SE visible
29 Mar 3.4 21:03:27 10° SW 21:04:01 12° SW 21:04:01 12° SW visible
30 Mar 2.4 19:11:51 10° SW 19:15:08 23° S 19:18:25 10° SE visible
30 Mar 3.2 20:53:06 10° SW 20:54:10 14° SW 20:54:10 14° SW visible
31 Mar 2.5 19:01:19 10° SW 19:04:33 22° S 19:07:49 10° SE visible
31 Mar 3.1 20:42:51 10° SW 20:44:18 14° SSW 20:44:18 14° SSW visible
01 Apr 3.2 20:32:48 10° SW 20:34:28 12° SSW 20:34:28 12° SSW visible
02 Apr 3.3 20:23:21 10° SSW 20:23:55 10° SSW 20:24:30 10° SSW visible
